• En España
  • Lista de países
  • Para 7 días
  • Temperatura del agua
  • Mapa Satelital
  • El tiempo en el mapa
  • Informadores
  • user-avatar
    Iniciar sesión

    Tiempo cada hora Lensk

    Hoy, 16 Agosto, Jueves

    Tiempo Temperatura Precipitaciones Viento Presión Humedad
    00:00 +13°C° 0 mm 1 mps 750 mmHg 90%
    01:00 +13°C° 0 mm 1 mps 750 mmHg 91%
    02:00 +12°C° 0 mm 1 mps 750 mmHg 91%
    03:00 +12°C° 0 mm 1 mps 750 mmHg 92%
    04:00 +12°C° 0 mm 1 mps 750 mmHg 91%
    05:00 +13°C° 0 mm 1 mps 750 mmHg 88%
    06:00 +14°C° 0 mm 1 mps 750 mmHg 85%
    07:00 +15°C° 0 mm 2 mps 750 mmHg 82%
    08:00 +17°C° 0,1 mm 2 mps 749 mmHg 79%
    09:00 +18°C° 0,1 mm 3 mps 749 mmHg 75%
    10:00 +19°C° 0 mm 4 mps 748 mmHg 71%
    11:00 +19°C° 1 mm 4 mps 748 mmHg 76%
    12:00 +19°C° 1 mm 4 mps 747 mmHg 80%
    13:00 +18°C° 1 mm 4 mps 747 mmHg 84%
    14:00 +19°C° 0,5 mm 4 mps 746 mmHg 86%
    15:00 +20°C° 0,5 mm 4 mps 746 mmHg 87%
    16:00 +21°C° 0 mm 4 mps 746 mmHg 88%
    17:00 +20°C° 0,5 mm 3 mps 745 mmHg 90%
    18:00 +20°C° 0,5 mm 3 mps 745 mmHg 92%
    19:00 +20°C° 0,5 mm 3 mps 745 mmHg 93%
    20:00 +19°C° 0,2 mm 3 mps 745 mmHg 95%
    21:00 +18°C° 0,2 mm 3 mps 745 mmHg 96%
    22:00 +17°C° 0,2 mm 3 mps 745 mmHg 97%
    23:00 +16°C° 0 mm 3 mps 745 mmHg 97%

    Mañana, 17 Agosto, Viernes

    Tiempo Temperatura Precipitaciones Viento Presión Humedad
    00:00 +16°C° 0 mm 3 mps 745 mmHg 97%
    01:00 +14°C° 0 mm 4 mps 746 mmHg 96%
    02:00 +13°C° 0 mm 4 mps 746 mmHg 96%
    03:00 +13°C° 0 mm 4 mps 746 mmHg 96%
    04:00 +12°C° 0 mm 4 mps 747 mmHg 96%
    05:00 +12°C° 0 mm 4 mps 747 mmHg 95%
    06:00 +10°C° 0 mm 5 mps 748 mmHg 94%
    07:00 +10°C° 0 mm 5 mps 748 mmHg 94%
    08:00 +12°C° 0 mm 5 mps 749 mmHg 88%
    09:00 +13°C° 0 mm 5 mps 749 mmHg 82%
    10:00 +14°C° 0 mm 5 mps 750 mmHg 76%
    11:00 +15°C° 0 mm 5 mps 750 mmHg 70%
    12:00 +16°C° 0 mm 5 mps 750 mmHg 63%
    13:00 +17°C° 0 mm 5 mps 750 mmHg 57%
    14:00 +17°C° 0 mm 5 mps 750 mmHg 56%
    15:00 +19°C° 0 mm 5 mps 750 mmHg 55%
    16:00 +19°C° 0 mm 5 mps 750 mmHg 55%
    17:00 +17°C° 0 mm 4 mps 750 mmHg 61%
    18:00 +15°C° 0 mm 4 mps 751 mmHg 68%
    19:00 +14°C° 0 mm 3 mps 751 mmHg 74%
    20:00 +13°C° 0 mm 3 mps 751 mmHg 80%
    21:00 +11°C° 0 mm 3 mps 751 mmHg 85%
    22:00 +10°C° 0 mm 2 mps 752 mmHg 91%
    23:00 +9°C° 0 mm 2 mps 752 mmHg 93%

    Pasado mañana, 18 Agosto, Sábado

    Tiempo Temperatura Precipitaciones Viento Presión Humedad
    00:00 +9°C° 0 mm 2 mps 752 mmHg 94%
    01:00 +8°C° 0 mm 2 mps 752 mmHg 96%
    02:00 +8°C° 0 mm 2 mps 752 mmHg 96%
    03:00 +8°C° 0 mm 2 mps 753 mmHg 97%
    04:00 +7°C° 0 mm 2 mps 753 mmHg 97%
    05:00 +8°C° 0 mm 3 mps 753 mmHg 95%
    06:00 +9°C° 0 mm 3 mps 753 mmHg 92%
    07:00 +9°C° 0 mm 3 mps 754 mmHg 89%
    08:00 +11°C° 0 mm 4 mps 753 mmHg 81%
    09:00 +13°C° 0 mm 4 mps 753 mmHg 73%
    10:00 +14°C° 0 mm 4 mps 753 mmHg 65%
    11:00 +15°C° 0 mm 4 mps 753 mmHg 62%
    12:00 +15°C° 0 mm 4 mps 753 mmHg 60%
    13:00 +17°C° 0 mm 4 mps 753 mmHg 57%
    14:00 +15°C° 0 mm 4 mps 753 mmHg 58%
    15:00 +15°C° 0 mm 4 mps 753 mmHg 59%
    16:00 +15°C° 0 mm 4 mps 753 mmHg 60%
    17:00 +14°C° 0 mm 3 mps 754 mmHg 65%
    18:00 +13°C° 0 mm 3 mps 754 mmHg 71%
    19:00 +13°C° 0 mm 2 mps 754 mmHg 77%
    20:00 +12°C° 0 mm 2 mps 754 mmHg 81%
    21:00 +10°C° 0 mm 2 mps 755 mmHg 85%
    22:00 +9°C° 0 mm 2 mps 755 mmHg 89%
    23:00 +8°C° 0 mm 2 mps 755 mmHg 90%

    19 Agosto, Domingo

    Tiempo Temperatura Precipitaciones Viento Presión Humedad
    00:00 +8°C° 0 mm 2 mps 755 mmHg 92%
    01:00 +7°C° 0 mm 2 mps 755 mmHg 93%
    02:00 +7°C° 0 mm 2 mps 756 mmHg 94%
    03:00 +7°C° 0 mm 2 mps 756 mmHg 94%
    04:00 +7°C° 0 mm 1 mps 756 mmHg 95%
    05:00 +8°C° 0 mm 1 mps 756 mmHg 91%
    06:00 +9°C° 0 mm 1 mps 756 mmHg 88%
    07:00 +9°C° 0 mm 2 mps 757 mmHg 85%
    08:00 +12°C° 0 mm 2 mps 757 mmHg 77%
    09:00 +14°C° 0 mm 2 mps 757 mmHg 70%
    10:00 +16°C° 0 mm 2 mps 756 mmHg 62%
    11:00 +17°C° 0 mm 2 mps 756 mmHg 59%
    12:00 +17°C° 0 mm 2 mps 756 mmHg 55%
    13:00 +18°C° 0 mm 2 mps 756 mmHg 52%
    14:00 +18°C° 0 mm 2 mps 755 mmHg 52%
    15:00 +19°C° 0 mm 2 mps 755 mmHg 52%
    16:00 +19°C° 0 mm 2 mps 755 mmHg 51%
    17:00 +18°C° 0 mm 1 mps 755 mmHg 57%
    18:00 +16°C° 0 mm 1 mps 755 mmHg 63%
    19:00 +14°C° 0 mm 0 mps 755 mmHg 69%
    20:00 +13°C° 0 mm 1 mps 755 mmHg 73%
    21:00 +12°C° 0 mm 1 mps 755 mmHg 77%
    22:00 +11°C° 0 mm 1 mps 755 mmHg 81%
    23:00 +10°C° 0 mm 1 mps 755 mmHg 82%

    20 Agosto, Lunes

    Tiempo Temperatura Precipitaciones Viento Presión Humedad
    00:00 +10°C° 0 mm 1 mps 755 mmHg 84%
    01:00 +10°C° 0 mm 1 mps 756 mmHg 85%
    02:00 +9°C° 0 mm 1 mps 756 mmHg 86%
    03:00 +9°C° 0 mm 1 mps 756 mmHg 87%
    04:00 +9°C° 0 mm 1 mps 756 mmHg 88%
    05:00 +10°C° 0 mm 1 mps 756 mmHg 84%
    06:00 +11°C° 0 mm 1 mps 756 mmHg 81%
    07:00 +12°C° 0 mm 0 mps 756 mmHg 77%
    08:00 +15°C° 0 mm 1 mps 755 mmHg 71%
    09:00 +18°C° 0 mm 1 mps 755 mmHg 64%
    10:00 +20°C° 0 mm 1 mps 755 mmHg 58%
    11:00 +21°C° 0 mm 1 mps 755 mmHg 55%
    12:00 +22°C° 0 mm 1 mps 754 mmHg 53%
    13:00 +23°C° 0 mm 1 mps 754 mmHg 50%
    14:00 +23°C° 0 mm 1 mps 754 mmHg 51%
    15:00 +23°C° 0 mm 1 mps 754 mmHg 52%
    16:00 +23°C° 0 mm 1 mps 753 mmHg 52%
    17:00 +22°C° 0 mm 1 mps 753 mmHg 60%
    18:00 +20°C° 0 mm 1 mps 753 mmHg 67%
    19:00 +19°C° 0 mm 1 mps 753 mmHg 74%
    20:00 +18°C° 0 mm 1 mps 753 mmHg 78%
    21:00 +16°C° 0 mm 1 mps 753 mmHg 83%
    22:00 +14°C° 0 mm 1 mps 753 mmHg 87%
    23:00 +14°C° 0 mm 1 mps 753 mmHg 88%

    21 Agosto, Martes

    Tiempo Temperatura Precipitaciones Viento Presión Humedad
    00:00 +14°C° 0 mm 1 mps 753 mmHg 89%
    01:00 +13°C° 0 mm 1 mps 753 mmHg 90%
    02:00 +13°C° 0 mm 1 mps 753 mmHg 91%
    03:00 +13°C° 0 mm 1 mps 753 mmHg 91%
    04:00 +12°C° 0 mm 1 mps 753 mmHg 92%
    05:00 +13°C° 0 mm 1 mps 753 mmHg 90%
    06:00 +14°C° 0 mm 1 mps 753 mmHg 87%
    07:00 +15°C° 0 mm 1 mps 753 mmHg 85%
    08:00 +17°C° 0 mm 2 mps 753 mmHg 78%
    09:00 +19°C° 0 mm 2 mps 752 mmHg 72%
    10:00 +20°C° 0 mm 2 mps 752 mmHg 65%
    11:00 +21°C° 0 mm 3 mps 752 mmHg 62%
    12:00 +22°C° 0 mm 3 mps 752 mmHg 58%
    13:00 +24°C° 0 mm 3 mps 752 mmHg 54%
    14:00 +24°C° 0 mm 3 mps 751 mmHg 55%
    15:00 +24°C° 0 mm 3 mps 751 mmHg 55%
    16:00 +24°C° 0 mm 3 mps 751 mmHg 56%
    17:00 +22°C° 0 mm 3 mps 751 mmHg 63%
    18:00 +20°C° 0 mm 2 mps 751 mmHg 71%
    19:00 +19°C° 0 mm 2 mps 751 mmHg 78%
    20:00 +18°C° 0 mm 2 mps 751 mmHg 82%
    21:00 +17°C° 0 mm 2 mps 751 mmHg 85%
    22:00 +16°C° 0 mm 2 mps 751 mmHg 88%
    23:00 +16°C° 0,1 mm 2 mps 750 mmHg 90%
    Mostrar más